Weather History for KLVM - April, 2013

Change the Weather History Date:

Tuesday, April 23, 2013

  Actual Average Record
Temperature  
Mean Temperature 30 °F 44 °F  
Max Temperature 48 °F 57 °F 86 °F (2012)
Min Temperature 14 °F 30 °F 12 °F (2013)
Degree Days  
Heating Degree Days 35 21  
Month to date heating degree days 549  
Since 1 July heating degree days 6808  
Cooling Degree Days 0 0  
Month to date cooling degree days 0  
Year to date cooling degree days 0  
Moisture  
Dew Point 13 °F    
Average Humidity 50    
Maximum Humidity 77    
Minimum Humidity 23    
Precipitation  
Precipitation 0.00 in 0.07 in 0.65 in (1993)
Month to date precipitation 1.27  
Year to date precipitation 3.10  
Sea Level Pressure  
Sea Level Pressure 30.27 in    
Wind  
Wind Speed 11 mph (West)    
Max Wind Speed 21 mph    
Max Gust Speed 30 mph    
Visibility 10 miles    
Events      
T = Trace of Precipitation, MM = Missing Value Source: NWS Daily Summary

Daily Weather History Graph

Daily Weather History Graph

Search for Another Location

Airport or City:

Trip Planner

Search our weather history database for the weather conditions in past years. The results will help you decide how hot, cold, wet, or windy it might be!

Date:

Astronomy

Apr. 23, 2013 Rise Set
Actual Time 6:21 AM MDT 8:19 PM MDT
Civil Twilight 5:49 AM MDT 8:51 PM MDT
Nautical Twilight 5:10 AM MDT 9:30 PM MDT
Astronomical Twilight 4:27 AM MDT 10:14 PM MDT
Moon 6:13 PM MDT (4/23) 4:58 AM MDT (4/23)
Length of Visible Light 15h 01m
Length of Day
13h 57m
Waxing Gibbous, 94% of the Moon is Illuminated
Apr 23
Waxing Gibbous
Apr 25
Full
May 2
Last Quarter
May 9
New
May 17
First Quarter

Hourly Weather History & Observations

Time (MDT) Temp. Windchill Dew Point Humidity Pressure Visibility Wind Dir Wind Speed Gust Speed Precip Events Conditions
12:53 AM 14.0 °F 8.2 °F 8.1 °F 77% 30.46 in 10.0 mi NW 3.5 mph - N/A   Clear
1:53 AM 14.0 °F - 8.1 °F 77% 30.44 in 10.0 mi Calm Calm - N/A   Clear
2:53 AM 16.0 °F 2.3 °F 10.0 °F 77% 30.40 in 10.0 mi NW 12.7 mph - N/A   Clear
4:53 AM 16.0 °F 2.9 °F 9.0 °F 74% 30.37 in 10.0 mi NW 11.5 mph 21.9 mph N/A   Clear
5:53 AM 15.1 °F -0.1 °F 8.1 °F 74% 30.37 in 10.0 mi NW 15.0 mph 23.0 mph N/A   Clear
6:53 AM 15.1 °F -0.6 °F 9.0 °F 77% 30.38 in 10.0 mi NW 16.1 mph - N/A   Clear
7:53 AM 28.9 °F 16.5 °F 12.0 °F 49% 30.32 in 10.0 mi SW 18.4 mph 23.0 mph N/A   Clear
8:07 AM 30.2 °F 17.8 °F 10.4 °F 44% 30.21 in 10.0 mi SW 19.6 mph - N/A   Clear
8:53 AM 33.1 °F 22.2 °F 10.9 °F 40% 30.33 in 10.0 mi SW 17.3 mph - N/A   Clear
9:53 AM 36.0 °F 25.0 °F 10.9 °F 36% 30.29 in 10.0 mi SW 20.7 mph - N/A   Clear
10:53 AM 37.9 °F 27.6 °F 10.9 °F 33% 30.28 in 10.0 mi SW 20.7 mph - N/A   Clear
11:53 AM 42.1 °F 33.6 °F 12.0 °F 29% 30.27 in 10.0 mi SW 18.4 mph 29.9 mph N/A   Clear
1:53 PM 46.0 °F 39.6 °F 10.9 °F 24% 30.22 in 10.0 mi West 15.0 mph 20.7 mph N/A   Overcast
2:53 PM 43.0 °F 38.8 °F 8.1 °F 24% 30.21 in 10.0 mi WNW 6.9 mph 17.3 mph N/A   Overcast
3:53 PM 46.0 °F 41.4 °F 10.0 °F 23% 30.19 in 10.0 mi NW 9.2 mph - N/A   Mostly Cloudy
4:53 PM 44.1 °F 39.0 °F 12.9 °F 28% 30.19 in 10.0 mi NNW 9.2 mph - N/A   Mostly Cloudy
5:53 PM 44.1 °F 37.7 °F 15.1 °F 31% 30.18 in 10.0 mi NNW 12.7 mph - N/A   Mostly Cloudy
6:53 PM 43.0 °F 36.0 °F 16.0 °F 34% 30.19 in 10.0 mi NNW 13.8 mph - N/A   Overcast
7:20 PM 41.0 °F 34.3 °F 21.2 °F 45% 30.09 in 10.0 mi WSW 11.5 mph 23.0 mph N/A   Overcast
7:53 PM 39.9 °F 32.5 °F 21.9 °F 49% 30.17 in 10.0 mi West 12.7 mph - N/A   Overcast
8:53 PM 33.1 °F 26.9 °F 19.0 °F 56% 30.20 in 10.0 mi West 6.9 mph - N/A   Mostly Cloudy
9:53 PM 30.9 °F 25.2 °F 21.0 °F 67% 30.22 in 10.0 mi WSW 5.8 mph - N/A   Clear
10:53 PM 35.1 °F 30.1 °F 21.9 °F 59% 30.20 in 10.0 mi West 5.8 mph - N/A   Overcast
11:53 PM 34.0 °F 28.8 °F 24.1 °F 67% 30.20 in 10.0 mi West 5.8 mph - N/A   Overcast